Location: Asheville, NC
(35.6000°N, 82.5500°W)
Time: 22:35:10
(UTC-05:00)

Vanguard 1 Rocket - Pass Details

Date: 12 December 2017
Orbit: 656 x 4222 km, 34.3° (Epoch: 17 January)

Event Time Altitude Azimuth Distance (km) Brightness Sun altitude
Rises 23:24:52 0° 286° (WNW) 6,729 12.1 -72.1°
Reaches altitude 10° 23:28:48 10° 282° (WNW) 6,086 11.7 -72.7°
Enters shadow 23:35:58 30° 272° (W) 5,155 11.1 -73.7°
Maximum altitude 23:49:29 56° 212° (SSW) 4,589 - -75.4°
Drops below altitude 10° 00:14:03 10° 141° (SE) 6,999 - -77.4°
Exits shadow 00:18:08 - 138° (SE) 7,591 12.0 -77.5°
Sets 00:19:05 0° 137° (SE) 7,731 12.0 -77.5°
